Location: Ferchesar
(52.6477°N, 12.4298°E)
Time: 08:40:44
(UTC+01:00)

Transit 2A - Pass Details

Date: 13 December 2021
Orbit: 591 x 966 km, 66.7° (Epoch: 26 January)

Event Time Altitude Azimuth Distance (km) Brightness Sun altitude
Exits shadow 03:20:08 21° 38° (NE) 2,054 8.5 -42.8°
Drops below altitude 10° 03:23:06 10° 63° (ENE) 2,703 9.4 -42.3°
Sets 03:26:12 0° 77° (ENE) 3,625 10.3 -41.9°
